Overview Statistics Trail Chart Weather Telemetry Raw packets
 

This is the latest recevied weather packets stored in our database for station/object IU1OLT-6. If no packets are shown the sender has not sent any weather packets the latest 10 day(s).

<< 1 2 3 4 5 6 7 >>
Time Temp. Humidity Pressure Rain* Wind** Luminosity Snow
1788624991 22.78° C 57% 1015.9 hPa 0 mm - - -
1788624079 22.78° C 64% 1015.9 hPa 0 mm - - -
1788623167 21.11° C 69% 1015.9 hPa 0 mm - - -
1788622207 22.22° C 77% 1015.8 hPa 0 mm - - -
1788621295 22.22° C 78% 1015.9 hPa 0 mm - - -
1788620383 21.67° C 72% 1016 hPa 0 mm - - -
1788619423 21.11° C 82% 1016.1 hPa 0 mm - - -
1788618463 21.11° C 79% 1016.1 hPa 0 mm - - -
1788617503 20.56° C 83% 1016 hPa 0 mm - - -
1788616543 20.56° C 80% 1016.1 hPa 0 mm - - -
1788615583 21.67° C 79% 1016.2 hPa 0 mm - - -
1788614623 19.44° C 86% 1016.3 hPa 0 mm - - -
1788613663 21.11° C 77% 1016.3 hPa 0 mm - - -
1788612703 21.67° C 78% 1016.4 hPa 0 mm - - -
1788611791 21.11° C 71% 1016.5 hPa 0 mm - - -
1788610879 21.11° C 65% 1016.6 hPa 0 mm - - -
1788609919 21.11° C 76% 1016.6 hPa 0 mm - - -
1788608959 20.56° C 76% 1016.6 hPa 0 mm - - -
1788607999 19.44° C 83% 1016.4 hPa 0 mm - - -
1788607039 19.44° C 80% 1016.4 hPa 0 mm - - -
1788606080 21.11° C 74% 1016.5 hPa 0 mm - - -
1788605167 20° C 65% 1016.4 hPa 0 mm - - -
1788604255 21.11° C 64% 1016.4 hPa 0 mm - - -
1788603295 20.56° C 61% 1016.3 hPa 0 mm - - -
1788602335 21.11° C 58% 1016.2 hPa 0 mm - - -

* Rain latest hour (hover to see other rain measurements)
** Current wind speed in m/s (hover to see current wind gust speed)